NJU218 EGJB-EGSS

Flight info

Callsign NJU218
Flight time 0h 42m
Altitude 19000
Route LERAK T498 UPALO/N0475F280 UT510 DIKRO UM185 TELTU
Aircraft C700/M-SBDGHM1RWXY/LB2

Departure

Time 2026-05-07 19:52
Airport Guernsey Airport (EGJB)

Arrival

Time 2026-05-07 20:34
Airport London Stansted Airport (EGSS)
Time Latitude Longitude Altitude Speed Heading
2026-05-07 19:40 49.43292 -2.59511 337 ft 0 kts 178°
2026-05-07 19:49 49.43291 -2.59511 337 ft 0 kts 189°
2026-05-07 19:49 49.43292 -2.59523 334 ft 1 kts 300°
2026-05-07 19:49 49.43328 -2.59534 336 ft 12 kts 345°
2026-05-07 19:49 49.43361 -2.59650 334 ft 17 kts 268°
2026-05-07 19:50 49.43343 -2.59879 331 ft 25 kts 268°
2026-05-07 19:50 49.43336 -2.60170 326 ft 30 kts 267°
2026-05-07 19:50 49.43327 -2.60502 320 ft 29 kts 268°
2026-05-07 19:50 49.43352 -2.60824 315 ft 33 kts 281°
2026-05-07 19:51 49.43361 -2.61111 310 ft 27 kts 267°
2026-05-07 19:51 49.43389 -2.61302 307 ft 18 kts 309°
2026-05-07 19:51 49.43463 -2.61311 308 ft 12 kts 76°
2026-05-07 19:51 49.43475 -2.61009 314 ft 66 kts 87°
2026-05-07 19:52 49.43489 -2.59871 494 ft 133 kts 91°
2026-05-07 19:52 49.43506 -2.58248 1181 ft 176 kts 90°
2026-05-07 19:52 49.43594 -2.56187 2277 ft 205 kts 89°
2026-05-07 19:52 49.43691 -2.53923 3683 ft 220 kts 86°
2026-05-07 19:53 49.44209 -2.51613 5169 ft 237 kts 65°
2026-05-07 19:53 49.45222 -2.49543 6711 ft 249 kts 45°
2026-05-07 19:53 49.46688 -2.48061 8270 ft 257 kts 24°
2026-05-07 19:53 49.48419 -2.47312 9909 ft 263 kts 12°
2026-05-07 19:54 49.50291 -2.46612 11034 ft 290 kts 14°
2026-05-07 19:54 49.52317 -2.45823 12390 ft 303 kts 13°
2026-05-07 19:54 49.54377 -2.45044 14052 ft 309 kts 13°
2026-05-07 19:54 49.56464 -2.44252 15461 ft 316 kts 13°
2026-05-07 19:55 49.58630 -2.43427 16884 ft 324 kts 13°
2026-05-07 19:55 49.60851 -2.42573 18235 ft 333 kts 13°
2026-05-07 19:55 49.63150 -2.41696 18995 ft 353 kts 13°
2026-05-07 19:55 49.65534 -2.40783 19022 ft 351 kts 13°
2026-05-07 19:56 49.67861 -2.39830 19025 ft 344 kts 18°
2026-05-07 19:56 49.70090 -2.38145 19021 ft 375 kts 32°
2026-05-07 19:56 49.72183 -2.35467 19030 ft 407 kts 47°
2026-05-07 19:56 49.74098 -2.32035 19031 ft 430 kts 50°
2026-05-07 19:57 49.76035 -2.28479 19028 ft 434 kts 50°
2026-05-07 19:57 49.77993 -2.24891 19031 ft 436 kts 50°
2026-05-07 19:57 49.79958 -2.21326 19029 ft 435 kts 50°
2026-05-07 19:57 49.81916 -2.17760 19029 ft 434 kts 50°
2026-05-07 19:58 49.83862 -2.14192 19029 ft 433 kts 50°
2026-05-07 19:58 49.85806 -2.10634 19035 ft 433 kts 50°
2026-05-07 19:58 49.87756 -2.07061 19033 ft 435 kts 50°
2026-05-07 19:58 49.89713 -2.03468 19037 ft 435 kts 50°
2026-05-07 19:59 49.91626 -1.99956 19038 ft 433 kts 50°
2026-05-07 19:59 49.93569 -1.96375 19040 ft 434 kts 50°
2026-05-07 19:59 49.95513 -1.92792 19039 ft 436 kts 50°
2026-05-07 19:59 49.97464 -1.89195 19043 ft 434 kts 50°
2026-05-07 20:00 49.99389 -1.85581 19041 ft 433 kts 52°
2026-05-07 20:00 50.00954 -1.81582 19025 ft 435 kts 64°
2026-05-07 20:00 50.02295 -1.77370 19030 ft 434 kts 64°
2026-05-07 20:00 50.03659 -1.73197 19032 ft 432 kts 64°
2026-05-07 20:01 50.05019 -1.69002 19033 ft 433 kts 64°
2026-05-07 20:01 50.06362 -1.64794 19039 ft 435 kts 64°
2026-05-07 20:01 50.07709 -1.60597 19040 ft 435 kts 64°
2026-05-07 20:01 50.09365 -1.56672 19022 ft 433 kts 47°
2026-05-07 20:02 50.11684 -1.53701 19029 ft 432 kts 34°
2026-05-07 20:02 50.14239 -1.51228 19034 ft 434 kts 30°
2026-05-07 20:02 50.16815 -1.48877 19042 ft 435 kts 30°
2026-05-07 20:02 50.19355 -1.46230 19038 ft 434 kts 36°
2026-05-07 20:03 50.21702 -1.43366 19037 ft 432 kts 38°
2026-05-07 20:03 50.24077 -1.40510 19036 ft 432 kts 36°
2026-05-07 20:03 50.26557 -1.37836 19034 ft 433 kts 33°
2026-05-07 20:03 50.29038 -1.35154 19035 ft 434 kts 35°
2026-05-07 20:04 50.31478 -1.32332 19039 ft 435 kts 36°
2026-05-07 20:04 50.33911 -1.29514 19039 ft 434 kts 36°
2026-05-07 20:04 50.36366 -1.26774 19046 ft 432 kts 35°
2026-05-07 20:04 50.38809 -1.24041 19045 ft 431 kts 35°
2026-05-07 20:05 50.41239 -1.21261 19048 ft 433 kts 36°
2026-05-07 20:05 50.43671 -1.18482 19048 ft 434 kts 36°
2026-05-07 20:05 50.46123 -1.15704 19051 ft 434 kts 35°
2026-05-07 20:05 50.48567 -1.12924 19051 ft 434 kts 36°
2026-05-07 20:06 50.51008 -1.10134 19051 ft 434 kts 36°
2026-05-07 20:06 50.52627 -1.08286 19056 ft 434 kts 36°
2026-05-07 20:06 50.55073 -1.05490 19055 ft 434 kts 36°
2026-05-07 20:06 50.58310 -1.01783 19059 ft 434 kts 36°
2026-05-07 20:07 50.60750 -0.98987 19063 ft 434 kts 36°
2026-05-07 20:07 50.63193 -0.96178 19065 ft 434 kts 36°
2026-05-07 20:07 50.65628 -0.93381 19066 ft 433 kts 36°
2026-05-07 20:07 50.67275 -0.91487 19067 ft 432 kts 36°
2026-05-07 20:08 50.69695 -0.88694 19066 ft 431 kts 36°
2026-05-07 20:08 50.72090 -0.85935 19068 ft 432 kts 36°
2026-05-07 20:08 50.74515 -0.83131 19068 ft 433 kts 36°
2026-05-07 20:08 50.76940 -0.80324 19068 ft 434 kts 36°
2026-05-07 20:09 50.79378 -0.77504 19065 ft 431 kts 36°
2026-05-07 20:09 50.81925 -0.75025 19051 ft 430 kts 25°
2026-05-07 20:09 50.84685 -0.73201 19052 ft 431 kts 21°
2026-05-07 20:10 50.90072 -0.69720 19055 ft 430 kts 21°
2026-05-07 20:10 50.92931 -0.67880 19055 ft 428 kts 21°
2026-05-07 20:10 50.95701 -0.66100 19055 ft 429 kts 21°
2026-05-07 20:10 50.98466 -0.64306 19058 ft 430 kts 21°
2026-05-07 20:11 51.01243 -0.62507 19058 ft 431 kts 21°
2026-05-07 20:11 51.03983 -0.60731 19068 ft 430 kts 21°
2026-05-07 20:11 51.06753 -0.58934 19070 ft 430 kts 21°
2026-05-07 20:11 51.09369 -0.57235 19069 ft 429 kts 21°
2026-05-07 20:12 51.12134 -0.55432 19071 ft 429 kts 21°
2026-05-07 20:12 51.14893 -0.53636 19073 ft 428 kts 21°
2026-05-07 20:12 51.17653 -0.51833 19069 ft 428 kts 21°
2026-05-07 20:12 51.20417 -0.50029 19073 ft 428 kts 21°
2026-05-07 20:13 51.23168 -0.48229 19074 ft 428 kts 21°
2026-05-07 20:13 51.25923 -0.46423 19076 ft 428 kts 21°
2026-05-07 20:13 51.28682 -0.44615 19073 ft 429 kts 21°
2026-05-07 20:13 51.31450 -0.42796 19077 ft 431 kts 21°
2026-05-07 20:14 51.34225 -0.40973 19080 ft 431 kts 21°
2026-05-07 20:14 51.36996 -0.39144 19083 ft 430 kts 21°
2026-05-07 20:14 51.39767 -0.37319 19083 ft 430 kts 21°
2026-05-07 20:14 51.42519 -0.35504 18960 ft 425 kts 21°
2026-05-07 20:15 51.45164 -0.33604 18538 ft 408 kts 25°
2026-05-07 20:15 51.47650 -0.31670 18046 ft 397 kts 25°
2026-05-07 20:15 51.50122 -0.29774 17530 ft 392 kts 24°
2026-05-07 20:15 51.52588 -0.27910 17018 ft 392 kts 25°
2026-05-07 20:16 51.55054 -0.26024 16520 ft 392 kts 25°
2026-05-07 20:16 51.57505 -0.24136 16092 ft 384 kts 25°
2026-05-07 20:16 51.59825 -0.22353 16049 ft 354 kts 25°
2026-05-07 20:16 51.61925 -0.20739 15996 ft 328 kts 25°
2026-05-07 20:17 51.63957 -0.19179 15391 ft 323 kts 25°
2026-05-07 20:17 51.65991 -0.17614 14747 ft 321 kts 25°
2026-05-07 20:17 51.68000 -0.16063 14146 ft 318 kts 25°
2026-05-07 20:17 51.69985 -0.14531 13520 ft 315 kts 25°
2026-05-07 20:18 51.71933 -0.13027 12897 ft 312 kts 25°
2026-05-07 20:18 51.73880 -0.11522 12279 ft 308 kts 25°
2026-05-07 20:18 51.75821 -0.10079 11669 ft 305 kts 22°
2026-05-07 20:18 51.77767 -0.08745 11081 ft 302 kts 23°
2026-05-07 20:19 51.79687 -0.07386 10507 ft 300 kts 23°
2026-05-07 20:19 51.81587 -0.06045 10069 ft 294 kts 23°
2026-05-07 20:19 51.83419 -0.04762 10073 ft 285 kts 23°
2026-05-07 20:19 51.85281 -0.03460 10074 ft 297 kts 23°
2026-05-07 20:20 51.87183 -0.02121 10072 ft 298 kts 23°
2026-05-07 20:20 51.89092 -0.00779 10074 ft 298 kts 23°
2026-05-07 20:20 51.90996 0.00560 10074 ft 296 kts 23°
2026-05-07 20:20 51.92832 0.01854 10069 ft 278 kts 23°
2026-05-07 20:21 51.94544 0.03060 10063 ft 262 kts 23°
2026-05-07 20:21 51.96194 0.04224 10065 ft 257 kts 23°
2026-05-07 20:21 51.97849 0.05393 10067 ft 262 kts 23°
2026-05-07 20:21 51.99595 0.06213 10067 ft 263 kts
2026-05-07 20:22 52.01402 0.06304 10064 ft 263 kts
2026-05-07 20:22 52.03233 0.06422 10066 ft 263 kts
2026-05-07 20:22 52.05055 0.06545 10068 ft 262 kts
2026-05-07 20:22 52.06863 0.06641 9813 ft 258 kts
2026-05-07 20:23 52.08663 0.06739 9376 ft 258 kts
2026-05-07 20:23 52.10435 0.06550 8972 ft 254 kts 342°
2026-05-07 20:23 52.11842 0.04946 8608 ft 247 kts 307°
2026-05-07 20:23 52.12515 0.02456 8235 ft 242 kts 277°
2026-05-07 20:24 52.12322 -0.00206 7879 ft 238 kts 248°
2026-05-07 20:24 52.11338 -0.02334 7512 ft 237 kts 219°
2026-05-07 20:24 52.09828 -0.03382 7132 ft 240 kts 192°
2026-05-07 20:24 52.08168 -0.03630 6744 ft 241 kts 179°
2026-05-07 20:25 52.06517 -0.03258 6386 ft 242 kts 172°
2026-05-07 20:25 52.04870 -0.02767 6032 ft 241 kts 171°
2026-05-07 20:25 52.03260 -0.02274 6005 ft 230 kts 171°
2026-05-07 20:25 52.01673 -0.01789 6002 ft 236 kts 171°
2026-05-07 20:26 52.00036 -0.01291 6010 ft 240 kts 171°
2026-05-07 20:26 51.98392 -0.00794 6028 ft 240 kts 171°
2026-05-07 20:26 51.96747 -0.00297 6031 ft 240 kts 171°
2026-05-07 20:26 51.95106 0.00192 6034 ft 240 kts 171°
2026-05-07 20:27 51.93466 0.00683 6038 ft 240 kts 171°
2026-05-07 20:27 51.91841 0.01162 5773 ft 236 kts 171°
2026-05-07 20:27 51.90215 0.01637 5411 ft 236 kts 171°
2026-05-07 20:27 51.88620 0.02094 5082 ft 234 kts 171°
2026-05-07 20:28 51.87022 0.02545 4746 ft 233 kts 171°
2026-05-07 20:28 51.85433 0.02988 4418 ft 230 kts 171°
2026-05-07 20:28 51.83849 0.02966 4065 ft 229 kts 192°
2026-05-07 20:28 51.82353 0.02310 4030 ft 218 kts 195°
2026-05-07 20:29 51.80867 0.01633 3603 ft 226 kts 195°
2026-05-07 20:29 51.79385 0.00942 3423 ft 211 kts 196°
2026-05-07 20:29 51.78028 0.00300 3229 ft 200 kts 196°
2026-05-07 20:29 51.76679 0.00161 2976 ft 191 kts 164°
2026-05-07 20:30 51.75678 0.01487 3010 ft 196 kts 121°
2026-05-07 20:30 51.75478 0.03714 3016 ft 210 kts 82°
2026-05-07 20:30 51.76176 0.05765 3015 ft 214 kts 44°
2026-05-07 20:30 51.77428 0.07015 3036 ft 205 kts 34°
2026-05-07 20:31 51.78455 0.08475 2911 ft 190 kts 46°
2026-05-07 20:31 51.79384 0.09844 2667 ft 177 kts 44°
2026-05-07 20:31 51.80274 0.11150 2429 ft 169 kts 46°
2026-05-07 20:31 51.81114 0.12442 2198 ft 163 kts 45°
2026-05-07 20:32 51.81950 0.13649 1983 ft 163 kts 46°
2026-05-07 20:32 51.82785 0.14946 1754 ft 168 kts 47°
2026-05-07 20:32 51.83632 0.16180 1538 ft 153 kts 45°
2026-05-07 20:32 51.84381 0.17311 1318 ft 140 kts 48°
2026-05-07 20:33 51.85071 0.18341 1104 ft 133 kts 46°
2026-05-07 20:33 51.85731 0.19336 906 ft 128 kts 48°
2026-05-07 20:33 51.86358 0.20282 735 ft 119 kts 45°
2026-05-07 20:33 51.86954 0.21163 556 ft 115 kts 47°
2026-05-07 20:34 51.87554 0.22056 379 ft 116 kts 46°
2026-05-07 20:34 51.88102 0.22884 329 ft 93 kts 41°
2026-05-07 20:34 51.88466 0.23426 330 ft 57 kts 42°
2026-05-07 20:34 51.88683 0.23750 329 ft 12 kts 36°
2026-05-07 20:35 51.88767 0.23678 325 ft 17 kts 314°
2026-05-07 20:35 51.88799 0.23531 326 ft 16 kts 223°
2026-05-07 20:35 51.88714 0.23405 332 ft 17 kts 222°
2026-05-07 20:35 51.88614 0.23256 331 ft 23 kts 224°
2026-05-07 20:36 51.88518 0.23108 330 ft 11 kts 237°
2026-05-07 20:36 51.88565 0.22967 330 ft 20 kts 310°
2026-05-07 20:36 51.88656 0.22787 330 ft 14 kts 312°
2026-05-07 20:36 51.88630 0.22702 330 ft 8 kts 216°
2026-05-07 20:37 51.88593 0.22700 329 ft 5 kts 77°
2026-05-07 20:37 51.88616 0.22706 328 ft 0 kts 344°